Time,TemperatureF,DewpointF,PressureIn,WindDirection,WindDirectionDegrees,WindSpeedMPH,WindSpeedGustMPH,Humidity,HourlyPrecipIn,Conditions,Clouds,dailyrainin,SoftwareType,DateUTC
2013-04-14 00:00:00,55.9,44.3,29.82,SE,132,0.4,2.3,65,0.00,,,0.00,WeatherDisplay:10.37,2013-04-14 05:00:00,
2013-04-14 00:05:00,55.8,44.2,29.82,ESE,120,2.5,3.5,65,0.00,,,0.00,WeatherDisplay:10.37,2013-04-14 05:05:00,
2013-04-14 00:10:00,55.8,44.2,29.81,ESE,114,3.7,9.2,65,0.00,,,0.00,WeatherDisplay:10.37,2013-04-14 05:10:00,
2013-04-14 00:15:00,55.8,44.2,29.81,SE,127,3.7,5.8,65,0.00,,,0.00,WeatherDisplay:10.37,2013-04-14 05:15:00,
2013-04-14 00:20:00,55.7,44.5,29.81,SE,145,3.5,5.0,66,0.00,,,0.00,WeatherDisplay:10.37,2013-04-14 05:20:00,
2013-04-14 00:25:00,55.6,44.4,29.81,East,94,2.1,4.6,66,0.00,,,0.00,WeatherDisplay:10.37,2013-04-14 05:25:00,
2013-04-14 00:30:00,55.4,44.2,29.81,ESE,119,3.4,5.0,66,0.00,,,0.00,WeatherDisplay:10.37,2013-04-14 05:30:00,
2013-04-14 00:35:00,55.2,44.4,29.81,SE,135,1.8,3.0,67,0.00,,,0.00,WeatherDisplay:10.37,2013-04-14 05:35:00,
2013-04-14 00:40:00,55.1,44.3,29.80,East,91,2.9,4.0,67,0.00,,,0.00,WeatherDisplay:10.37,2013-04-14 05:40:00,
2013-04-14 00:45:00,55.0,44.6,29.80,SSE,159,3.9,6.9,68,0.00,,,0.00,WeatherDisplay:10.37,2013-04-14 05:45:00,
2013-04-14 00:50:00,55.0,44.6,29.80,SE,132,0.8,2.3,68,0.00,,,0.00,WeatherDisplay:10.37,2013-04-14 05:50:00,
2013-04-14 00:55:00,54.9,44.5,29.80,SSE,152,1.7,3.5,68,0.00,,,0.00,WeatherDisplay:10.37,2013-04-14 05:55:00,
2013-04-14 01:00:00,54.7,44.7,29.80,SE,141,2.2,3.5,69,0.00,,,0.00,WeatherDisplay:10.37,2013-04-14 06:00:00,
2013-04-14 01:05:00,54.8,44.8,29.80,SE,132,1.3,3.5,69,0.00,,,0.00,WeatherDisplay:10.37,2013-04-14 06:05:00,
2013-04-14 01:10:00,54.6,44.6,29.80,ESE,110,1.0,3.0,69,0.00,,,0.00,WeatherDisplay:10.37,2013-04-14 06:10:00,
2013-04-14 01:15:00,54.5,44.5,29.80,SE,132,1.0,3.5,69,0.00,,,0.00,WeatherDisplay:10.37,2013-04-14 06:15:00,
2013-04-14 01:20:00,54.3,44.7,29.80,SSE,148,2.3,4.6,70,0.00,,,0.00,WeatherDisplay:10.37,2013-04-14 06:20:00,
2013-04-14 01:25:00,54.1,44.5,29.80,SSE,165,1.7,3.5,70,0.00,,,0.00,WeatherDisplay:10.37,2013-04-14 06:25:00,
2013-04-14 01:30:00,54.0,44.8,29.80,SSE,147,1.0,2.3,71,0.00,,,0.00,WeatherDisplay:10.37,2013-04-14 06:30:00,
2013-04-14 01:35:00,53.9,44.7,29.80,SSE,158,1.8,2.3,71,0.00,,,0.00,WeatherDisplay:10.37,2013-04-14 06:35:00,
2013-04-14 01:40:00,53.8,44.6,29.79,SE,132,0.6,1.1,71,0.00,,,0.00,WeatherDisplay:10.37,2013-04-14 06:40:00,
2013-04-14 01:45:00,53.7,44.9,29.79,ESE,108,0.9,2.3,72,0.00,,,0.00,WeatherDisplay:10.37,2013-04-14 06:45:00,
2013-04-14 01:50:00,53.6,44.8,29.79,WSW,250,1.5,4.0,72,0.00,,,0.00,WeatherDisplay:10.37,2013-04-14 06:50:00,
2013-04-14 01:55:00,53.4,45.0,29.79,ESE,113,1.4,4.0,73,0.00,,,0.00,WeatherDisplay:10.37,2013-04-14 06:55:00,
2013-04-14 02:00:00,53.5,45.1,29.79,ESE,120,1.8,3.5,73,0.00,,,0.00,WeatherDisplay:10.37,2013-04-14 07:00:00,
2013-04-14 02:05:00,53.4,45.0,29.78,East,99,1.2,3.5,73,0.00,,,0.00,WeatherDisplay:10.37,2013-04-14 07:05:00,
2013-04-14 02:10:00,53.2,45.1,29.78,East,90,1.8,3.5,74,0.00,,,0.00,WeatherDisplay:10.37,2013-04-14 07:10:00,
2013-04-14 02:15:00,53.2,45.1,29.78,ESE,122,1.4,3.5,74,0.00,,,0.00,WeatherDisplay:10.37,2013-04-14 07:15:00,
2013-04-14 02:21:00,53.1,45.0,29.78,SE,142,1.2,2.3,74,0.00,,,0.00,WeatherDisplay:10.37,2013-04-14 07:21:00,
2013-04-14 02:26:00,53.0,45.3,29.78,SE,125,2.1,5.8,75,0.00,,,0.00,WeatherDisplay:10.37,2013-04-14 07:26:00,
2013-04-14 02:31:00,53.0,45.3,29.77,East,91,2.2,3.5,75,0.00,,,0.00,WeatherDisplay:10.37,2013-04-14 07:31:00,
2013-04-14 02:36:00,52.9,45.2,29.77,East,89,1.1,2.3,75,0.00,,,0.00,WeatherDisplay:10.37,2013-04-14 07:36:00,
2013-04-14 02:41:00,52.9,45.5,29.77,SSE,150,1.3,3.5,76,0.00,,,0.00,WeatherDisplay:10.37,2013-04-14 07:41:00,
2013-04-14 02:46:00,52.8,45.4,29.77,ESE,110,0.1,1.1,76,0.00,,,0.00,WeatherDisplay:10.37,2013-04-14 07:46:00,
2013-04-14 02:51:00,52.6,45.2,29.77,SSE,155,0.0,0.0,76,0.00,,,0.00,WeatherDisplay:10.37,2013-04-14 07:51:00,
2013-04-14 02:56:00,52.5,45.5,29.76,ESE,106,1.4,2.3,77,0.00,,,0.00,WeatherDisplay:10.37,2013-04-14 07:56:00,
2013-04-14 03:01:00,52.5,45.5,29.76,ESE,118,1.6,4.6,77,0.00,,,0.00,WeatherDisplay:10.37,2013-04-14 08:01:00,
2013-04-14 03:06:00,52.4,45.7,29.75,ESE,113,1.4,3.5,78,0.00,,,0.00,WeatherDisplay:10.37,2013-04-14 08:06:00,
2013-04-14 03:11:00,52.2,45.5,29.75,SSE,155,2.5,3.5,78,0.00,,,0.00,WeatherDisplay:10.37,2013-04-14 08:11:00,
2013-04-14 03:16:00,52.3,45.6,29.75,SSE,148,1.2,2.3,78,0.00,,,0.00,WeatherDisplay:10.37,2013-04-14 08:16:00,
2013-04-14 03:22:00,52.5,45.8,29.75,SSE,159,2.3,4.6,78,0.00,,,0.00,WeatherDisplay:10.37,2013-04-14 08:22:00,
2013-04-14 03:27:00,52.5,45.8,29.74,ESE,111,1.7,3.5,78,0.00,,,0.00,WeatherDisplay:10.37,2013-04-14 08:27:00,
2013-04-14 03:32:00,52.6,46.3,29.74,SE,136,3.0,4.6,79,0.00,,,0.00,WeatherDisplay:10.37,2013-04-14 08:32:00,
2013-04-14 03:37:00,52.6,46.3,29.74,ESE,103,1.3,2.3,79,0.00,,,0.00,WeatherDisplay:10.37,2013-04-14 08:37:00,
2013-04-14 03:42:00,52.5,46.2,29.74,SE,129,1.2,2.3,79,0.00,,,0.00,WeatherDisplay:10.37,2013-04-14 08:42:00,
2013-04-14 03:47:00,52.5,46.2,29.74,SE,134,1.6,4.6,79,0.00,,,0.00,WeatherDisplay:10.37,2013-04-14 08:47:00,
2013-04-14 03:52:00,52.5,46.2,29.74,ESE,110,2.6,3.5,79,0.00,,,0.00,WeatherDisplay:10.37,2013-04-14 08:52:00,
2013-04-14 03:57:00,52.7,46.4,29.74,SE,131,3.1,3.5,79,0.00,,,0.00,WeatherDisplay:10.37,2013-04-14 08:57:00,
2013-04-14 04:02:00,52.7,46.4,29.73,ESE,108,1.4,3.5,79,0.00,,,0.00,WeatherDisplay:10.37,2013-04-14 09:02:00,
2013-04-14 04:07:00,52.7,46.4,29.73,SE,128,2.4,3.5,79,0.00,,,0.00,WeatherDisplay:10.37,2013-04-14 09:07:00,
2013-04-14 04:12:00,52.7,46.4,29.72,ESE,115,1.9,3.5,79,0.00,,,0.00,WeatherDisplay:10.37,2013-04-14 09:12:00,
2013-04-14 04:17:00,52.6,46.6,29.72,ESE,115,1.7,3.5,80,0.00,,,0.00,WeatherDisplay:10.37,2013-04-14 09:17:00,
2013-04-14 04:22:00,52.6,46.6,29.72,SE,133,0.5,2.3,80,0.00,,,0.00,WeatherDisplay:10.37,2013-04-14 09:22:00,
2013-04-14 04:27:00,52.5,46.5,29.72,ESE,122,1.3,3.5,80,0.00,,,0.00,WeatherDisplay:10.37,2013-04-14 09:27:00,
2013-04-14 04:32:00,52.5,46.5,29.72,ESE,105,2.0,4.6,80,0.00,,,0.00,WeatherDisplay:10.37,2013-04-14 09:32:00,
2013-04-14 04:37:00,52.4,46.4,29.72,ESE,114,3.4,6.9,80,0.00,,,0.00,WeatherDisplay:10.37,2013-04-14 09:37:00,
2013-04-14 04:42:00,52.3,46.3,29.71,East,94,1.9,3.5,80,0.00,,,0.00,WeatherDisplay:10.37,2013-04-14 09:42:00,
2013-04-14 04:47:00,52.2,46.5,29.71,ESE,106,1.4,4.0,81,0.00,,,0.00,WeatherDisplay:10.37,2013-04-14 09:47:00,
2013-04-14 04:52:00,52.1,46.4,29.71,ESE,108,1.5,3.5,81,0.00,,,0.00,WeatherDisplay:10.37,2013-04-14 09:52:00,
2013-04-14 04:57:00,52.0,46.3,29.70,SE,131,0.8,2.3,81,0.00,,,0.00,WeatherDisplay:10.37,2013-04-14 09:57:00,
2013-04-14 05:03:00,52.0,46.3,29.70,ESE,120,1.0,4.0,81,0.00,,,0.00,WeatherDisplay:10.37,2013-04-14 10:03:00,
2013-04-14 05:08:00,52.0,46.7,29.70,East,81,1.4,3.5,82,0.00,,,0.00,WeatherDisplay:10.37,2013-04-14 10:08:00,
2013-04-14 05:13:00,52.1,46.8,29.70,SE,124,2.0,4.6,82,0.00,,,0.00,WeatherDisplay:10.37,2013-04-14 10:13:00,
2013-04-14 05:18:00,52.0,46.3,29.70,ESE,107,0.9,3.5,81,0.00,,,0.00,WeatherDisplay:10.37,2013-04-14 10:18:00,
2013-04-14 05:23:00,52.0,46.7,29.70,ESE,105,1.0,2.3,82,0.00,,,0.00,WeatherDisplay:10.37,2013-04-14 10:23:00,
2013-04-14 05:28:00,51.9,46.6,29.71,SE,136,0.8,2.0,82,0.00,,,0.00,WeatherDisplay:10.37,2013-04-14 10:28:00,
2013-04-14 05:33:00,51.7,46.4,29.71,SSW,196,0.2,3.5,82,0.00,,,0.00,WeatherDisplay:10.37,2013-04-14 10:33:00,
2013-04-14 05:38:00,51.7,46.4,29.71,SE,143,1.3,2.3,82,0.00,,,0.00,WeatherDisplay:10.37,2013-04-14 10:38:00,
2013-04-14 05:43:00,51.6,46.3,29.72,SSE,167,2.2,3.5,82,0.00,,,0.00,WeatherDisplay:10.37,2013-04-14 10:43:00,
2013-04-14 05:48:00,51.4,46.4,29.72,SE,129,2.0,3.5,83,0.00,,,0.00,WeatherDisplay:10.37,2013-04-14 10:48:00,
2013-04-14 05:53:00,51.3,46.3,29.72,SE,125,1.3,3.5,83,0.00,,,0.00,WeatherDisplay:10.37,2013-04-14 10:53:00,
2013-04-14 05:58:00,51.1,46.4,29.72,East,80,2.7,5.8,84,0.00,,,0.00,WeatherDisplay:10.37,2013-04-14 10:58:00,
2013-04-14 06:03:00,51.1,46.4,29.72,ESE,103,2.5,3.5,84,0.00,,,0.00,WeatherDisplay:10.37,2013-04-14 11:03:00,
2013-04-14 06:08:00,51.1,46.4,29.72,SSE,150,4.5,6.9,84,0.00,,,0.00,WeatherDisplay:10.37,2013-04-14 11:08:00,
2013-04-14 06:13:00,51.1,46.4,29.72,East,84,0.8,3.5,84,0.00,,,0.00,WeatherDisplay:10.37,2013-04-14 11:13:00,
2013-04-14 06:18:00,51.2,46.5,29.72,East,89,2.1,4.0,84,0.00,,,0.00,WeatherDisplay:10.37,2013-04-14 11:18:00,
2013-04-14 06:23:00,51.2,46.5,29.72,NE,56,1.6,4.0,84,0.00,,,0.00,WeatherDisplay:10.37,2013-04-14 11:23:00,
2013-04-14 06:28:00,51.1,46.4,29.72,ESE,103,2.1,6.0,84,0.00,,,0.00,WeatherDisplay:10.37,2013-04-14 11:28:00,
2013-04-14 06:33:00,51.2,46.5,29.71,SE,132,3.0,4.6,84,0.00,,,0.00,WeatherDisplay:10.37,2013-04-14 11:33:00,
2013-04-14 06:38:00,51.4,46.7,29.71,East,92,2.5,4.6,84,0.00,,,0.00,WeatherDisplay:10.37,2013-04-14 11:38:00,
2013-04-14 06:43:00,51.5,46.5,29.71,ESE,120,2.6,6.0,83,0.00,,,0.00,WeatherDisplay:10.37,2013-04-14 11:43:00,
2013-04-14 06:48:00,51.5,46.5,29.71,ESE,107,3.1,5.8,83,0.00,,,0.00,WeatherDisplay:10.37,2013-04-14 11:48:00,
2013-04-14 06:53:00,51.6,46.6,29.71,SE,143,4.7,6.9,83,0.00,,,0.00,WeatherDisplay:10.37,2013-04-14 11:53:00,
2013-04-14 06:58:00,51.8,46.8,29.71,East,99,1.7,3.5,83,0.00,,,0.00,WeatherDisplay:10.37,2013-04-14 11:58:00,
2013-04-14 07:03:00,51.8,46.8,29.71,ESE,110,2.6,4.6,83,0.00,,,0.00,WeatherDisplay:10.37,2013-04-14 12:03:00,
2013-04-14 07:08:00,51.8,46.8,29.71,South,186,2.0,2.3,83,0.00,,,0.00,WeatherDisplay:10.37,2013-04-14 12:08:00,
2013-04-14 07:13:00,51.8,46.8,29.71,ESE,115,1.5,3.5,83,0.00,,,0.00,WeatherDisplay:10.37,2013-04-14 12:13:00,
2013-04-14 07:18:00,51.9,46.9,29.71,SE,145,2.0,3.5,83,0.00,,,0.00,WeatherDisplay:10.37,2013-04-14 12:18:00,
2013-04-14 07:23:00,52.0,47.0,29.71,SE,146,1.1,3.0,83,0.00,,,0.00,WeatherDisplay:10.37,2013-04-14 12:23:00,
2013-04-14 07:28:00,52.2,46.9,29.71,SE,141,2.1,4.6,82,0.00,,,0.00,WeatherDisplay:10.37,2013-04-14 12:28:00,
2013-04-14 07:33:00,52.8,47.1,29.71,SE,127,2.0,3.5,81,0.00,,,0.00,WeatherDisplay:10.37,2013-04-14 12:33:00,
2013-04-14 07:38:00,53.3,47.3,29.70,SE,143,2.0,5.8,80,0.00,,,0.00,WeatherDisplay:10.37,2013-04-14 12:38:00,
2013-04-14 07:43:00,53.7,47.7,29.70,SE,128,2.6,3.5,80,0.00,,,0.00,WeatherDisplay:10.37,2013-04-14 12:43:00,
2013-04-14 07:48:00,54.5,48.1,29.71,East,84,1.4,3.5,79,0.00,,,0.00,WeatherDisplay:10.37,2013-04-14 12:48:00,
2013-04-14 07:53:00,55.1,48.0,29.71,SSE,163,2.4,4.0,77,0.00,,,0.00,WeatherDisplay:10.37,2013-04-14 12:53:00,
2013-04-14 07:58:00,55.5,48.4,29.71,SE,127,1.6,3.5,77,0.00,,,0.00,WeatherDisplay:10.37,2013-04-14 12:58:00,
2013-04-14 08:03:00,56.0,48.5,29.70,SE,126,1.2,5.0,76,0.00,,,0.00,WeatherDisplay:10.37,2013-04-14 13:03:00,
2013-04-14 08:08:00,56.5,48.7,29.70,ESE,105,2.4,3.5,75,0.00,,,0.00,WeatherDisplay:10.37,2013-04-14 13:08:00,
2013-04-14 08:13:00,57.0,48.8,29.70,ESE,103,3.7,6.9,74,0.00,,,0.00,WeatherDisplay:10.37,2013-04-14 13:13:00,
2013-04-14 08:18:00,57.3,48.7,29.70,ESE,105,3.8,4.6,73,0.00,,,0.00,WeatherDisplay:10.37,2013-04-14 13:18:00,
2013-04-14 08:23:00,57.6,48.6,29.70,SE,125,4.7,10.4,72,0.00,,,0.00,WeatherDisplay:10.37,2013-04-14 13:23:00,
2013-04-14 08:28:00,58.0,49.0,29.70,SE,131,4.5,6.9,72,0.00,,,0.00,WeatherDisplay:10.37,2013-04-14 13:28:00,
2013-04-14 08:33:00,58.3,48.9,29.70,SE,132,5.3,9.2,71,0.00,,,0.00,WeatherDisplay:10.37,2013-04-14 13:33:00,
2013-04-14 08:38:00,58.6,48.8,29.70,ESE,110,4.8,6.9,70,0.00,,,0.00,WeatherDisplay:10.37,2013-04-14 13:38:00,
2013-04-14 08:43:00,59.0,49.2,29.70,SSE,167,4.8,8.1,70,0.00,,,0.00,WeatherDisplay:10.37,2013-04-14 13:43:00,
2013-04-14 08:48:00,59.6,49.4,29.70,ESE,105,3.9,5.8,69,0.00,,,0.00,WeatherDisplay:10.37,2013-04-14 13:48:00,
2013-04-14 08:53:00,59.9,49.3,29.70,East,98,2.5,4.6,68,0.00,,,0.00,WeatherDisplay:10.37,2013-04-14 13:53:00,
2013-04-14 08:58:00,60.4,49.8,29.69,South,179,2.7,4.6,68,0.00,,,0.00,WeatherDisplay:10.37,2013-04-14 13:58:00,
2013-04-14 09:03:00,61.1,49.7,29.69,South,181,2.4,5.0,66,0.00,,,0.00,WeatherDisplay:10.37,2013-04-14 14:03:00,
2013-04-14 09:08:00,61.3,49.4,29.69,SE,139,3.3,3.3,65,0.00,,,0.00,WeatherDisplay:10.37,2013-04-14 14:08:00,
2013-04-14 09:13:00,61.7,49.4,29.69,SSE,167,5.7,7.0,64,0.00,,,0.00,WeatherDisplay:10.37,2013-04-14 14:13:00,
2013-04-14 09:18:00,61.8,49.1,29.69,SE,144,7.0,10.4,63,0.00,,,0.00,WeatherDisplay:10.37,2013-04-14 14:18:00,
2013-04-14 09:23:00,62.2,49.9,29.68,SE,127,5.3,5.3,64,0.00,,,0.00,WeatherDisplay:10.37,2013-04-14 14:23:00,
2013-04-14 09:28:00,62.3,50.0,29.68,SSE,155,3.1,6.9,64,0.00,,,0.00,WeatherDisplay:10.37,2013-04-14 14:28:00,
2013-04-14 09:34:00,62.6,49.8,29.68,SE,124,3.5,8.1,63,0.00,,,0.00,WeatherDisplay:10.37,2013-04-14 14:34:00,
2013-04-14 09:39:00,62.9,49.7,29.68,West,263,3.6,8.1,62,0.00,,,0.00,WeatherDisplay:10.37,2013-04-14 14:39:00,
2013-04-14 09:44:00,63.7,50.4,29.69,SSW,203,1.6,3.5,62,0.00,,,0.00,WeatherDisplay:10.37,2013-04-14 14:44:00,
2013-04-14 09:49:00,64.5,49.8,29.69,ESE,117,7.3,11.5,59,0.00,,,0.00,WeatherDisplay:10.37,2013-04-14 14:49:00,
2013-04-14 09:54:00,64.9,49.8,29.68,ESE,119,7.7,11.5,58,0.00,,,0.00,WeatherDisplay:10.37,2013-04-14 14:54:00,
2013-04-14 09:59:00,65.1,50.0,29.68,SSE,155,2.6,6.9,58,0.00,,,0.00,WeatherDisplay:10.37,2013-04-14 14:59:00,
2013-04-14 10:04:00,65.2,50.0,29.68,South,191,3.3,5.8,58,0.00,,,0.00,WeatherDisplay:10.37,2013-04-14 15:04:00,
2013-04-14 10:09:00,65.7,49.6,29.67,South,188,4.4,6.9,56,0.00,,,0.00,WeatherDisplay:10.37,2013-04-14 15:09:00,
2013-04-14 10:14:00,66.1,50.4,29.67,SE,143,5.3,10.4,57,0.00,,,0.00,WeatherDisplay:10.37,2013-04-14 15:14:00,
2013-04-14 10:19:00,65.9,50.2,29.67,SE,130,5.6,10.4,57,0.00,,,0.00,WeatherDisplay:10.37,2013-04-14 15:19:00,
2013-04-14 10:24:00,66.5,49.8,29.67,South,173,4.8,8.1,55,0.00,,,0.00,WeatherDisplay:10.37,2013-04-14 15:24:00,
2013-04-14 10:29:00,66.9,50.2,29.67,ESE,113,5.1,9.2,55,0.00,,,0.00,WeatherDisplay:10.37,2013-04-14 15:29:00,
2013-04-14 10:34:00,67.3,50.1,29.67,SE,136,8.7,11.5,54,0.00,,,0.00,WeatherDisplay:10.37,2013-04-14 15:34:00,
2013-04-14 10:39:00,67.7,50.5,29.66,East,92,5.6,9.2,54,0.00,,,0.00,WeatherDisplay:10.37,2013-04-14 15:39:00,
2013-04-14 10:44:00,68.6,50.8,29.66,South,172,3.4,6.9,53,0.00,,,0.00,WeatherDisplay:10.37,2013-04-14 15:44:00,
2013-04-14 10:49:00,69.3,50.4,29.66,SSE,155,7.2,15.0,51,0.00,,,0.00,WeatherDisplay:10.37,2013-04-14 15:49:00,
2013-04-14 10:54:00,69.1,50.7,29.66,ESE,114,6.1,9.0,52,0.00,,,0.00,WeatherDisplay:10.37,2013-04-14 15:54:00,
2013-04-14 10:59:00,69.3,50.9,29.65,SW,218,5.2,12.7,52,0.00,,,0.00,WeatherDisplay:10.37,2013-04-14 15:59:00,
2013-04-14 11:04:00,69.8,50.9,29.65,SSE,165,4.6,8.1,51,0.00,,,0.00,WeatherDisplay:10.37,2013-04-14 16:04:00,
2013-04-14 11:09:00,70.1,50.6,29.65,East,82,8.1,13.8,50,0.00,,,0.00,WeatherDisplay:10.37,2013-04-14 16:09:00,
2013-04-14 11:14:00,70.4,50.9,29.65,ESE,112,7.3,11.5,50,0.00,,,0.00,WeatherDisplay:10.37,2013-04-14 16:14:00,
2013-04-14 11:19:00,70.9,51.3,29.65,SSE,167,6.0,14.0,50,0.00,,,0.00,WeatherDisplay:10.37,2013-04-14 16:19:00,
2013-04-14 11:24:00,71.2,51.1,29.64,South,179,3.8,10.4,49,0.00,,,0.00,WeatherDisplay:10.37,2013-04-14 16:24:00,
2013-04-14 11:29:00,72.3,50.9,29.64,SE,143,4.7,5.8,47,0.00,,,0.00,WeatherDisplay:10.37,2013-04-14 16:29:00,
2013-04-14 11:34:00,72.8,50.2,29.64,SE,142,4.8,13.8,45,0.00,,,0.00,WeatherDisplay:10.37,2013-04-14 16:34:00,
2013-04-14 11:39:00,73.7,49.8,29.63,ESE,118,4.0,5.8,43,0.00,,,0.00,WeatherDisplay:10.37,2013-04-14 16:39:00,
2013-04-14 11:44:00,74.6,48.0,29.63,SSE,157,8.5,16.0,39,0.00,,,0.00,WeatherDisplay:10.37,2013-04-14 16:44:00,
2013-04-14 11:49:00,74.9,45.4,29.63,South,188,7.9,20.7,35,0.00,,,0.00,WeatherDisplay:10.37,2013-04-14 16:49:00,
2013-04-14 11:54:00,75.1,47.0,29.63,ESE,115,7.6,15.0,37,0.00,,,0.00,WeatherDisplay:10.37,2013-04-14 16:54:00,
2013-04-14 11:59:00,75.5,45.9,29.62,SSE,151,11.6,16.1,35,0.00,,,0.00,WeatherDisplay:10.37,2013-04-14 16:59:00,
2013-04-14 12:04:00,75.3,45.0,29.62,SSW,207,7.8,13.0,34,0.00,,,0.00,WeatherDisplay:10.37,2013-04-14 17:04:00,
2013-04-14 12:09:00,75.7,44.5,29.62,SSE,163,9.7,18.4,33,0.00,,,0.00,WeatherDisplay:10.37,2013-04-14 17:09:00,
2013-04-14 12:14:00,76.3,44.3,29.61,SSE,160,9.6,12.0,32,0.00,,,0.00,WeatherDisplay:10.37,2013-04-14 17:14:00,
2013-04-14 12:19:00,76.3,43.4,29.61,SE,134,6.4,15.0,31,0.00,,,0.00,WeatherDisplay:10.37,2013-04-14 17:19:00,
2013-04-14 12:24:00,76.4,44.4,29.61,ESE,113,7.0,11.0,32,0.00,,,0.00,WeatherDisplay:10.37,2013-04-14 17:24:00,
2013-04-14 12:29:00,76.3,43.4,29.61,SSE,160,11.5,19.6,31,0.00,,,0.00,WeatherDisplay:10.37,2013-04-14 17:29:00,
2013-04-14 12:34:00,77.1,43.3,29.61,ESE,116,4.7,11.5,30,0.00,,,0.00,WeatherDisplay:10.37,2013-04-14 17:34:00,
2013-04-14 12:39:00,76.7,43.8,29.60,SE,132,6.5,12.7,31,0.00,,,0.00,WeatherDisplay:10.37,2013-04-14 17:39:00,
2013-04-14 12:44:00,77.9,44.0,29.60,SSE,153,8.1,13.8,30,0.00,,,0.00,WeatherDisplay:10.37,2013-04-14 17:44:00,
2013-04-14 12:49:00,77.5,43.6,29.59,ESE,115,8.7,12.7,30,0.00,,,0.00,WeatherDisplay:10.37,2013-04-14 17:49:00,
2013-04-14 12:54:00,77.1,43.3,29.59,South,169,8.4,13.8,30,0.00,,,0.00,WeatherDisplay:10.37,2013-04-14 17:54:00,
2013-04-14 12:59:00,76.8,43.0,29.59,SSE,166,6.3,17.3,30,0.00,,,0.00,WeatherDisplay:10.37,2013-04-14 17:59:00,
2013-04-14 13:04:00,77.4,42.6,29.58,SW,218,8.7,13.8,29,0.00,,,0.00,WeatherDisplay:10.37,2013-04-14 18:04:00,
2013-04-14 13:09:00,77.9,43.1,29.58,SSE,148,7.7,11.5,29,0.00,,,0.00,WeatherDisplay:10.37,2013-04-14 18:09:00,
2013-04-14 13:14:00,78.1,42.3,29.58,South,185,9.6,21.0,28,0.00,,,0.00,WeatherDisplay:10.37,2013-04-14 18:14:00,
2013-04-14 13:19:00,77.9,41.2,29.58,SW,224,10.6,13.0,27,0.00,,,0.00,WeatherDisplay:10.37,2013-04-14 18:19:00,
2013-04-14 13:24:00,78.4,42.6,29.57,South,181,8.0,16.1,28,0.00,,,0.00,WeatherDisplay:10.37,2013-04-14 18:24:00,
2013-04-14 13:29:00,78.6,40.8,29.58,SE,134,11.7,18.4,26,0.00,,,0.00,WeatherDisplay:10.37,2013-04-14 18:29:00,
2013-04-14 13:34:00,78.6,39.8,29.57,SSE,152,9.7,15.0,25,0.00,,,0.00,WeatherDisplay:10.37,2013-04-14 18:34:00,
2013-04-14 13:39:00,78.6,41.8,29.57,South,173,7.1,13.8,27,0.00,,,0.00,WeatherDisplay:10.37,2013-04-14 18:39:00,
2013-04-14 13:44:00,79.5,40.6,29.57,SW,229,5.3,11.5,25,0.00,,,0.00,WeatherDisplay:10.37,2013-04-14 18:44:00,
2013-04-14 13:49:00,79.5,42.6,29.57,WSW,248,6.1,20.7,27,0.00,,,0.00,WeatherDisplay:10.37,2013-04-14 18:49:00,
2013-04-14 13:54:00,79.6,41.7,29.56,SSE,165,6.1,15.0,26,0.00,,,0.00,WeatherDisplay:10.37,2013-04-14 18:54:00,
2013-04-14 13:59:00,79.3,41.4,29.56,SSE,159,9.8,15.0,26,0.00,,,0.00,WeatherDisplay:10.37,2013-04-14 18:59:00,
2013-04-14 14:04:00,79.5,40.6,29.56,ESE,117,13.0,13.8,25,0.00,,,0.00,WeatherDisplay:10.37,2013-04-14 19:04:00,
2013-04-14 14:10:00,78.9,40.1,29.56,SE,145,11.4,18.4,25,0.00,,,0.00,WeatherDisplay:10.37,2013-04-14 19:10:00,
2013-04-14 14:15:00,78.8,41.0,29.56,SSW,198,9.6,26.5,26,0.00,,,0.00,WeatherDisplay:10.37,2013-04-14 19:15:00,
2013-04-14 14:20:00,78.6,40.8,29.55,South,186,8.6,16.1,26,0.00,,,0.00,WeatherDisplay:10.37,2013-04-14 19:20:00,
2013-04-14 14:25:00,79.5,43.5,29.55,SSW,196,8.3,16.1,28,0.00,,,0.00,WeatherDisplay:10.37,2013-04-14 19:25:00,
2013-04-14 14:30:00,79.8,43.8,29.55,SW,214,4.0,9.0,28,0.00,,,0.00,WeatherDisplay:10.37,2013-04-14 19:30:00,
2013-04-14 14:35:00,80.1,43.1,29.55,SSE,154,7.9,9.2,27,0.00,,,0.00,WeatherDisplay:10.37,2013-04-14 19:35:00,
2013-04-14 14:40:00,79.9,42.9,29.54,ESE,108,7.1,11.5,27,0.00,,,0.00,WeatherDisplay:10.37,2013-04-14 19:40:00,
2013-04-14 14:45:00,79.6,42.7,29.54,East,91,4.0,6.9,27,0.00,,,0.00,WeatherDisplay:10.37,2013-04-14 19:45:00,
2013-04-14 14:50:00,79.9,42.9,29.54,SE,139,10.7,16.1,27,0.00,,,0.00,WeatherDisplay:10.37,2013-04-14 19:50:00,
2013-04-14 14:55:00,79.5,42.6,29.53,SW,225,10.3,19.6,27,0.00,,,0.00,WeatherDisplay:10.37,2013-04-14 19:55:00,
2013-04-14 15:00:00,79.2,42.3,29.53,SE,145,6.3,9.2,27,0.00,,,0.00,WeatherDisplay:10.37,2013-04-14 20:00:00,
2013-04-14 15:05:00,79.2,42.3,29.53,SW,229,11.8,19.6,27,0.00,,,0.00,WeatherDisplay:10.37,2013-04-14 20:05:00,
2013-04-14 15:10:00,79.5,42.6,29.53,ESE,121,5.3,9.2,27,0.00,,,0.00,WeatherDisplay:10.37,2013-04-14 20:10:00,
2013-04-14 15:15:00,79.6,42.7,29.52,SE,141,5.5,9.2,27,0.00,,,0.00,WeatherDisplay:10.37,2013-04-14 20:15:00,
2013-04-14 15:20:00,80.0,42.0,29.52,SSE,147,4.6,8.1,26,0.00,,,0.00,WeatherDisplay:10.37,2013-04-14 20:20:00,
2013-04-14 15:25:00,80.3,42.3,29.52,SSE,153,5.9,11.5,26,0.00,,,0.00,WeatherDisplay:10.37,2013-04-14 20:25:00,
2013-04-14 15:30:00,79.7,41.8,29.51,SSE,165,6.7,11.5,26,0.00,,,0.00,WeatherDisplay:10.37,2013-04-14 20:30:00,
2013-04-14 15:35:00,80.2,41.2,29.51,ESE,121,11.6,15.0,25,0.00,,,0.00,WeatherDisplay:10.37,2013-04-14 20:35:00,
2013-04-14 15:40:00,79.6,41.7,29.50,SE,137,9.1,13.8,26,0.00,,,0.00,WeatherDisplay:10.37,2013-04-14 20:40:00,
2013-04-14 15:45:00,79.6,40.7,29.50,SSW,198,12.1,16.1,25,0.00,,,0.00,WeatherDisplay:10.37,2013-04-14 20:45:00,
2013-04-14 15:50:00,79.7,42.8,29.50,SSE,153,3.4,7.0,27,0.00,,,0.00,WeatherDisplay:10.37,2013-04-14 20:50:00,
2013-04-14 15:55:00,79.8,41.9,29.50,South,173,8.8,17.3,26,0.00,,,0.00,WeatherDisplay:10.37,2013-04-14 20:55:00,
2013-04-14 16:00:00,80.4,42.4,29.50,WSW,248,5.0,8.1,26,0.00,,,0.00,WeatherDisplay:10.37,2013-04-14 21:00:00,
2013-04-14 16:05:00,80.5,42.4,29.49,South,181,7.7,11.5,26,0.00,,,0.00,WeatherDisplay:10.37,2013-04-14 21:05:00,
2013-04-14 16:10:00,80.6,42.5,29.50,SSE,165,11.3,18.4,26,0.00,,,0.00,WeatherDisplay:10.37,2013-04-14 21:10:00,
2013-04-14 16:15:00,80.4,42.4,29.49,SE,139,7.7,15.0,26,0.00,,,0.00,WeatherDisplay:10.37,2013-04-14 21:15:00,
2013-04-14 16:20:00,80.8,42.7,29.49,SSW,207,8.6,16.1,26,0.00,,,0.00,WeatherDisplay:10.37,2013-04-14 21:20:00,
2013-04-14 16:25:00,80.1,42.1,29.49,WSW,239,6.3,11.5,26,0.00,,,0.00,WeatherDisplay:10.37,2013-04-14 21:25:00,
2013-04-14 16:30:00,79.9,42.9,29.49,SSW,203,6.5,9.2,27,0.00,,,0.00,WeatherDisplay:10.37,2013-04-14 21:30:00,
2013-04-14 16:35:00,80.2,43.2,29.50,SW,221,11.7,12.7,27,0.00,,,0.00,WeatherDisplay:10.37,2013-04-14 21:35:00,
2013-04-14 16:40:00,79.8,43.8,29.50,SW,221,9.8,15.0,28,0.00,,,0.00,WeatherDisplay:10.37,2013-04-14 21:40:00,
2013-04-14 16:45:00,79.9,44.8,29.50,SSE,148,5.5,11.5,29,0.00,,,0.00,WeatherDisplay:10.37,2013-04-14 21:45:00,
2013-04-14 16:50:00,80.0,44.9,29.50,SSE,167,5.9,13.8,29,0.00,,,0.00,WeatherDisplay:10.37,2013-04-14 21:50:00,
2013-04-14 16:56:00,79.8,44.7,29.50,SW,218,9.1,13.8,29,0.00,,,0.00,WeatherDisplay:10.37,2013-04-14 21:56:00,
2013-04-14 17:01:00,79.4,45.3,29.50,SSW,213,13.0,15.0,30,0.00,,,0.00,WeatherDisplay:10.37,2013-04-14 22:01:00,
2013-04-14 17:06:00,79.2,46.8,29.50,SSE,153,4.3,8.1,32,0.00,,,0.00,WeatherDisplay:10.37,2013-04-14 22:06:00,
2013-04-14 17:11:00,79.3,45.2,29.50,South,188,8.7,13.8,30,0.00,,,0.00,WeatherDisplay:10.37,2013-04-14 22:11:00,
2013-04-14 17:16:00,79.2,45.9,29.50,SSW,208,8.3,12.7,31,0.00,,,0.00,WeatherDisplay:10.37,2013-04-14 22:16:00,
2013-04-14 17:21:00,79.2,46.8,29.50,SE,145,6.6,11.5,32,0.00,,,0.00,WeatherDisplay:10.37,2013-04-14 22:21:00,
2013-04-14 17:26:00,79.1,47.5,29.50,SSE,156,4.3,15.0,33,0.00,,,0.00,WeatherDisplay:10.37,2013-04-14 22:26:00,
2013-04-14 17:31:00,79.0,46.6,29.51,SSE,160,6.1,10.4,32,0.00,,,0.00,WeatherDisplay:10.37,2013-04-14 22:31:00,
2013-04-14 17:36:00,79.1,47.5,29.51,SSE,152,2.6,13.8,33,0.00,,,0.00,WeatherDisplay:10.37,2013-04-14 22:36:00,
2013-04-14 17:41:00,78.8,46.4,29.50,SW,236,10.1,16.1,32,0.00,,,0.00,WeatherDisplay:10.37,2013-04-14 22:41:00,
2013-04-14 17:46:00,78.7,47.2,29.51,SE,133,6.8,11.5,33,0.00,,,0.00,WeatherDisplay:10.37,2013-04-14 22:46:00,
2013-04-14 17:51:00,78.7,46.4,29.51,South,169,8.1,11.5,32,0.00,,,0.00,WeatherDisplay:10.37,2013-04-14 22:51:00,
2013-04-14 17:56:00,78.7,46.4,29.51,SW,231,6.2,12.0,32,0.00,,,0.00,WeatherDisplay:10.37,2013-04-14 22:56:00,
2013-04-14 18:01:00,78.9,46.5,29.51,SW,231,8.2,15.0,32,0.00,,,0.00,WeatherDisplay:10.37,2013-04-14 23:01:00,
2013-04-14 18:07:00,78.6,48.7,29.51,SW,217,5.6,12.0,35,0.00,,,0.00,WeatherDisplay:10.37,2013-04-14 23:07:00,
2013-04-14 18:12:00,78.2,49.8,29.51,ESE,110,6.2,11.5,37,0.00,,,0.00,WeatherDisplay:10.37,2013-04-14 23:12:00,
2013-04-14 18:17:00,77.7,50.1,29.51,East,87,3.5,5.8,38,0.00,,,0.00,WeatherDisplay:10.37,2013-04-14 23:17:00,
2013-04-14 18:22:00,77.5,49.9,29.51,South,180,4.4,9.2,38,0.00,,,0.00,WeatherDisplay:10.37,2013-04-14 23:22:00,
2013-04-14 18:27:00,77.3,49.7,29.51,South,176,5.5,13.0,38,0.00,,,0.00,WeatherDisplay:10.37,2013-04-14 23:27:00,
2013-04-14 18:32:00,77.2,49.6,29.52,South,170,6.7,11.5,38,0.00,,,0.00,WeatherDisplay:10.37,2013-04-14 23:32:00,
2013-04-14 18:37:00,76.9,50.1,29.51,SE,134,7.3,13.8,39,0.00,,,0.00,WeatherDisplay:10.37,2013-04-14 23:37:00,
2013-04-14 18:42:00,76.7,50.6,29.51,SE,134,9.8,15.0,40,0.00,,,0.00,WeatherDisplay:10.37,2013-04-14 23:42:00,
2013-04-14 18:47:00,76.5,51.0,29.52,SW,236,7.4,12.7,41,0.00,,,0.00,WeatherDisplay:10.37,2013-04-14 23:47:00,
2013-04-14 18:52:00,76.3,50.9,29.52,SE,124,3.5,11.5,41,0.00,,,0.00,WeatherDisplay:10.37,2013-04-14 23:52:00,
2013-04-14 18:57:00,76.0,51.2,29.52,SE,141,3.1,9.2,42,0.00,,,0.00,WeatherDisplay:10.37,2013-04-14 23:57:00,
2013-04-14 19:02:00,75.7,51.0,29.53,SSE,160,3.5,4.6,42,0.00,,,0.00,WeatherDisplay:10.37,2013-04-15 00:02:00,
2013-04-14 19:07:00,75.4,51.3,29.53,SSE,150,3.8,3.8,43,0.00,,,0.00,WeatherDisplay:10.37,2013-04-15 00:07:00,
2013-04-14 19:12:00,75.1,51.1,29.53,SE,128,5.4,12.7,43,0.00,,,0.00,WeatherDisplay:10.37,2013-04-15 00:12:00,
2013-04-14 19:17:00,74.8,51.4,29.52,South,179,6.1,11.5,44,0.00,,,0.00,WeatherDisplay:10.37,2013-04-15 00:17:00,
2013-04-14 19:22:00,74.4,51.7,29.52,South,174,5.3,11.5,45,0.00,,,0.00,WeatherDisplay:10.37,2013-04-15 00:22:00,
2013-04-14 19:27:00,73.9,51.8,29.53,ESE,116,4.1,4.1,46,0.00,,,0.00,WeatherDisplay:10.37,2013-04-15 00:27:00,
2013-04-14 19:33:00,73.4,51.9,29.53,SE,142,2.6,3.5,47,0.00,,,0.00,WeatherDisplay:10.37,2013-04-15 00:33:00,
2013-04-14 19:38:00,73.0,52.1,29.53,ESE,119,4.9,11.5,48,0.00,,,0.00,WeatherDisplay:10.37,2013-04-15 00:38:00,
2013-04-14 19:43:00,72.7,51.9,29.54,SSE,155,2.3,3.5,48,0.00,,,0.00,WeatherDisplay:10.37,2013-04-15 00:43:00,
2013-04-14 19:48:00,72.3,52.1,29.54,ESE,118,2.2,4.0,49,0.00,,,0.00,WeatherDisplay:10.37,2013-04-15 00:48:00,
2013-04-14 19:53:00,71.9,52.2,29.54,SSE,153,2.8,6.9,50,0.00,,,0.00,WeatherDisplay:10.37,2013-04-15 00:53:00,
2013-04-14 19:58:00,71.6,52.0,29.55,SSW,205,4.6,9.2,50,0.00,,,0.00,WeatherDisplay:10.37,2013-04-15 00:58:00,
2013-04-14 20:03:00,71.4,52.3,29.55,SE,144,3.7,4.0,51,0.00,,,0.00,WeatherDisplay:10.37,2013-04-15 01:03:00,
2013-04-14 20:08:00,71.2,52.1,29.55,SSW,195,3.8,5.0,51,0.00,,,0.00,WeatherDisplay:10.37,2013-04-15 01:08:00,
2013-04-14 20:13:00,70.9,52.4,29.56,SSE,158,3.4,8.1,52,0.00,,,0.00,WeatherDisplay:10.37,2013-04-15 01:13:00,
2013-04-14 20:18:00,70.8,52.3,29.56,SSE,167,5.1,9.2,52,0.00,,,0.00,WeatherDisplay:10.37,2013-04-15 01:18:00,
2013-04-14 20:23:00,70.6,52.6,29.57,SE,130,5.9,9.2,53,0.00,,,0.00,WeatherDisplay:10.37,2013-04-15 01:23:00,
2013-04-14 20:28:00,70.3,52.9,29.57,SSW,197,4.1,5.8,54,0.00,,,0.00,WeatherDisplay:10.37,2013-04-15 01:28:00,
2013-04-14 20:33:00,70.0,53.6,29.57,West,259,3.6,10.4,56,0.00,,,0.00,WeatherDisplay:10.37,2013-04-15 01:33:00,
2013-04-14 20:38:00,69.6,54.2,29.57,ESE,116,4.4,8.1,58,0.00,,,0.00,WeatherDisplay:10.37,2013-04-15 01:38:00,
2013-04-14 20:43:00,69.3,54.8,29.58,SSE,162,1.9,3.5,60,0.00,,,0.00,WeatherDisplay:10.37,2013-04-15 01:43:00,
2013-04-14 20:48:00,69.0,55.4,29.58,SSW,192,2.4,4.6,62,0.00,,,0.00,WeatherDisplay:10.37,2013-04-15 01:48:00,
2013-04-14 20:53:00,68.7,56.0,29.59,ESE,114,3.8,9.0,64,0.00,,,0.00,WeatherDisplay:10.37,2013-04-15 01:53:00,
2013-04-14 20:58:00,68.4,56.2,29.59,SE,144,2.1,3.5,65,0.00,,,0.00,WeatherDisplay:10.37,2013-04-15 01:58:00,
2013-04-14 21:03:00,68.1,56.3,29.59,SE,145,3.4,6.0,66,0.00,,,0.00,WeatherDisplay:10.37,2013-04-15 02:03:00,
2013-04-14 21:08:00,67.9,56.5,29.59,SSE,158,2.8,4.6,67,0.00,,,0.00,WeatherDisplay:10.37,2013-04-15 02:08:00,
2013-04-14 21:13:00,67.6,56.7,29.60,SSE,164,2.2,6.9,68,0.00,,,0.00,WeatherDisplay:10.37,2013-04-15 02:13:00,
2013-04-14 21:18:00,67.5,57.0,29.59,SE,144,4.1,6.9,69,0.00,,,0.00,WeatherDisplay:10.37,2013-04-15 02:18:00,
2013-04-14 21:23:00,67.3,57.2,29.60,SSE,148,5.0,9.2,70,0.00,,,0.00,WeatherDisplay:10.37,2013-04-15 02:23:00,
2013-04-14 21:28:00,67.1,57.4,29.60,SSE,156,4.0,9.2,71,0.00,,,0.00,WeatherDisplay:10.37,2013-04-15 02:28:00,
2013-04-14 21:33:00,66.9,57.6,29.60,SSE,167,4.7,8.1,72,0.00,,,0.00,WeatherDisplay:10.37,2013-04-15 02:33:00,
2013-04-14 21:38:00,66.8,57.9,29.61,SSE,148,4.7,10.0,73,0.00,,,0.00,WeatherDisplay:10.37,2013-04-15 02:38:00,
2013-04-14 21:43:00,66.6,58.1,29.60,SE,130,5.9,6.9,74,0.00,,,0.00,WeatherDisplay:10.37,2013-04-15 02:43:00,
2013-04-14 21:48:00,66.5,58.0,29.61,SSE,150,3.0,8.1,74,0.00,,,0.00,WeatherDisplay:10.37,2013-04-15 02:48:00,
2013-04-14 21:53:00,66.4,57.9,29.62,East,86,6.0,11.5,74,0.00,,,0.00,WeatherDisplay:10.37,2013-04-15 02:53:00,
2013-04-14 21:58:00,66.3,58.1,29.62,South,190,6.2,6.2,75,0.00,,,0.00,WeatherDisplay:10.37,2013-04-15 02:58:00,
2013-04-14 22:03:00,66.2,58.0,29.62,South,188,2.4,5.8,75,0.00,,,0.00,WeatherDisplay:10.37,2013-04-15 03:03:00,
2013-04-14 22:08:00,66.0,58.2,29.62,SSE,152,3.8,9.2,76,0.00,,,0.00,WeatherDisplay:10.37,2013-04-15 03:08:00,
2013-04-14 22:13:00,65.8,58.0,29.62,SSE,155,6.7,10.4,76,0.00,,,0.00,WeatherDisplay:10.37,2013-04-15 03:13:00,
2013-04-14 22:18:00,65.8,58.0,29.62,SE,138,5.5,8.1,76,0.00,,,0.00,WeatherDisplay:10.37,2013-04-15 03:18:00,
2013-04-14 22:23:00,65.6,58.2,29.62,SE,125,6.2,6.9,77,0.00,,,0.00,WeatherDisplay:10.37,2013-04-15 03:23:00,
2013-04-14 22:29:00,65.4,58.0,29.62,SE,140,6.7,13.0,77,0.00,,,0.00,WeatherDisplay:10.37,2013-04-15 03:29:00,
2013-04-14 22:34:00,65.3,57.9,29.62,ESE,112,5.1,8.1,77,0.00,,,0.00,WeatherDisplay:10.37,2013-04-15 03:34:00,
2013-04-14 22:39:00,65.2,58.2,29.63,SE,127,3.4,8.1,78,0.00,,,0.00,WeatherDisplay:10.37,2013-04-15 03:39:00,
2013-04-14 22:44:00,65.0,58.0,29.63,ESE,104,3.0,5.8,78,0.00,,,0.00,WeatherDisplay:10.37,2013-04-15 03:44:00,
2013-04-14 22:49:00,64.8,57.8,29.63,SSE,150,4.8,9.2,78,0.00,,,0.00,WeatherDisplay:10.37,2013-04-15 03:49:00,
2013-04-14 22:54:00,64.7,57.7,29.64,ESE,119,3.5,4.0,78,0.00,,,0.00,WeatherDisplay:10.37,2013-04-15 03:54:00,
2013-04-14 23:00:00,64.5,57.8,29.64,ENE,74,2.2,4.0,79,0.00,,,0.00,WeatherDisplay:10.37,2013-04-15 04:00:00,
2013-04-14 23:05:00,64.2,57.5,29.64,ESE,108,1.9,3.5,79,0.00,,,0.00,WeatherDisplay:10.37,2013-04-15 04:05:00,
2013-04-14 23:10:00,64.1,57.8,29.64,ESE,121,2.4,3.5,80,0.00,,,0.00,WeatherDisplay:10.37,2013-04-15 04:10:00,
2013-04-14 23:15:00,63.9,57.6,29.64,ESE,115,3.0,3.5,80,0.00,,,0.00,WeatherDisplay:10.37,2013-04-15 04:15:00,
2013-04-14 23:20:00,63.8,57.5,29.64,SSE,155,0.6,2.3,80,0.00,,,0.00,WeatherDisplay:10.37,2013-04-15 04:20:00,
2013-04-14 23:25:00,63.5,57.6,29.65,East,87,2.9,4.6,81,0.00,,,0.00,WeatherDisplay:10.37,2013-04-15 04:25:00,
2013-04-14 23:30:00,63.3,57.4,29.64,ESE,118,2.0,7.0,81,0.00,,,0.00,WeatherDisplay:10.37,2013-04-15 04:30:00,
2013-04-14 23:35:00,63.3,57.4,29.64,ESE,113,4.4,5.8,81,0.00,,,0.00,WeatherDisplay:10.37,2013-04-15 04:35:00,
2013-04-14 23:40:00,63.3,57.4,29.64,SE,141,1.3,5.0,81,0.00,,,0.00,WeatherDisplay:10.37,2013-04-15 04:40:00,
2013-04-14 23:45:00,63.2,57.3,29.65,East,82,1.5,4.0,81,0.00,,,0.00,WeatherDisplay:10.37,2013-04-15 04:45:00,
2013-04-14 23:50:00,63.2,57.3,29.65,East,100,0.9,5.8,81,0.00,,,0.00,WeatherDisplay:10.37,2013-04-15 04:50:00,
2013-04-14 23:55:00,63.2,57.3,29.65,East,86,0.8,2.3,81,0.00,,,0.00,WeatherDisplay:10.37,2013-04-15 04:55:00,